This is the latest recevied weather packets stored in our database for station/object W0SS-13. If no packets are shown the sender has not sent any weather packets the latest 10 day(s).
| Time | Temp. | Humidity | Pressure | Rain* | Wind** | Luminosity | Snow |
|---|---|---|---|---|---|---|---|
| 1777284864 | 16.67° C | 87% | 999.6 hPa | 0 mm | - | 0 W/m² | - |
| 1777284561 | 16.11° C | 88% | 1000.1 hPa | 0 mm | - | 0 W/m² | - |
| 1777284257 | 16.11° C | 88% | 999.5 hPa | 0 mm | - | 0 W/m² | - |
| 1777283954 | 16.11° C | 88% | 999.5 hPa | 0 mm | - | 0 W/m² | - |
| 1777283651 | 16.11° C | 88% | 999.6 hPa | 0 mm | - | 0 W/m² | - |
| 1777283350 | 16.11° C | 88% | 1001.4 hPa | 0 mm | - | 0 W/m² | - |
| 1777283049 | 16.11° C | 88% | 1001.4 hPa | 0 mm | - | 0 W/m² | - |
| 1777282748 | 16.11° C | 88% | 1001 hPa | 0 mm | - | 0 W/m² | - |
| 1777282444 | 16.67° C | 87% | 1001.8 hPa | 0 mm | - | 0 W/m² | - |
| 1777282143 | 16.67° C | 86% | 1001.5 hPa | 0 mm | - | 0 W/m² | - |
| 1777281840 | 16.67° C | 85% | 1002.1 hPa | 0 mm | - | 0 W/m² | - |
| 1777281536 | 18.33° C | 83% | 1001.9 hPa | 0 mm | - | 0 W/m² | - |
| 1777281233 | 18.89° C | 84% | 1001.4 hPa | 0 mm | - | 0 W/m² | - |
| 1777280930 | 18.33° C | 86% | 1001.5 hPa | 0 mm | - | 0 W/m² | - |
| 1777280626 | 18.33° C | 85% | 1000.7 hPa | 0 mm | - | 0 W/m² | - |
| 1777280323 | 17.78° C | 85% | 1001 hPa | 0 mm | - | 0 W/m² | - |
| 1777280019 | 18.33° C | 86% | 1001.5 hPa | 0 mm | - | 0 W/m² | - |
| 1777279717 | 18.33° C | 87% | 1001.3 hPa | 0 mm | - | 0 W/m² | - |
| 1777279415 | 18.33° C | 87% | 1000.4 hPa | 0 mm | - | 0 W/m² | - |
| 1777279111 | 18.33° C | 87% | 999.7 hPa | 0 mm | - | 0 W/m² | - |
| 1777278807 | 18.33° C | 87% | 998.7 hPa | 0 mm | - | 0 W/m² | - |
| 1777278504 | 17.78° C | 88% | 999.3 hPa | 0 mm | - | 0 W/m² | - |
| 1777278201 | 17.78° C | 88% | 999.4 hPa | 0 mm | - | 0 W/m² | - |
| 1777277897 | 17.78° C | 88% | 999 hPa | 0 mm | - | 0 W/m² | - |
| 1777277594 | 17.78° C | 89% | 999.3 hPa | 1.78 mm | - | 0 W/m² | - |
* Rain latest hour (hover to see other rain measurements)
** Current wind speed in m/s (hover to see current wind gust speed)